SCP
0 0 0 0 0 0 0 0 0 0 0 0 0 0 0 0 0 0 0 0 0 0 0 0 0 0 0 0 0 0 0 0 0 0 0 0 -0 -0 -0 -0 0 0 -0
0 0 0 0 0 0 0 0 0 0 0 0 0 0 0 0 0 0 0 0 0 0 0 0 0 0 0 0 0 0 0 0 0 0 0 0 -0 -0 -0 0 0 0 0
0 0 0 0 0 0 0 0 0 0 0 0 0 0 0 0 0 0 0 0 0 0 0 -0 -0 0 0 0 0 0 0 0 0 0 0 0 -0 0 -0 0 0 0 0
0 0 0 0 0 0 0 0 0 0 0 0 0 0 0 0 0 0 0 0 0 0 0 -0 -0 0 0 0 0 0 0 0 -0 -0 0 0 -0 0 0 0 0 0 0
0 0 0 0 0 0 0 0 0 0 0 0 0 0 0 0 0 0 0 0 0 0 0 -0 0 0 0 0 0 0 0 0 -0 -0 0 0 -0 -0 0 0 0 -0 0
0 0 0 0 0 0 0 0 0 0 0 0 0 0 0 0 0 0 0 0 0 0 0 0 0 0 0 0 0 0 0 0 0 0 -0 0 0 0 0 0 0 0 0
0 0 0 0 0 0 0 0 0 0 0 -0 0 0 0 0 0 0 -0 0 0 0 0 0 0 0 0 0 0 0 0 0 0 -0 0 -0 0 0 0 0 0 0 0
0 0 0 0 0 0 0 0 0 0 -0 -0 0 0 0 0 0 0 0 0 0 0 0 0 0 0 0 0 0 0 0 0 0 0 0 0 0 0 0 0 0 0 0
0 0 0 0 0 0 0 0 0 0 -0 -0 -0 0 0 0 0 0 0 0 0 0 0 0 0 0 0 0 0 0 0 0 0 0 0 0 0 0 0 0 0 0 0
0 0 0 0 0 0 0 0 0 0 0 0 0 -0 0 0 0 0 0 0 0 0 0 0 0 0 0 0 0 0 0 0 0 0 0 0 0 0 0 0 0 0 0
0 0 0 0 0 0 0 0 0 0 0 0 0 0 0 0 0 0 0 0 0 0 0 0 0 0 0 0 0 0 0 0 0 0 0 0 0 0 0 0 0 0 0
0 0 0 0 0 0 0 0 0 0 0 0 0 0 0 0 0 0 0 0 0 0 0 0 0 0 0 0 0 0 0 0 0 0 0 0 0 0 0 0 0 0 0
0 0 0 0 0 0 0 0 0 0 0 0 0 0 0 0 0 0 0 0 0 0 0 0 0 0 0 0 0 0 0 0 0 0 0 0 0 0 0 0 0 0 0
0 0 0 0 0 0 0 0 0 0 0 0 0 0 0 0 0 0 0 0 0 0 0 0 0 0 0 0 0 0 0 0 0 0 0 0 0 0 0 0 0 0 0
-0 0 0 0 0 0 0 0 0 0 0 0 0 0 0 0 0 0 0 0 0 0 0 0 0 0 0 0 0 0 0 0 0 0 0 0 0 0 0 0 0 0 0
0 0 0 0 0 0 0 0 0 0 0 0 0 0 0 0 0 0 0 0 0 0 0 0 0 0 0 0 0 0 0 0 0 0 -0 0 0 0 0 0 0 0 0
0 0 0 0 0 0 0 0 0 0 0 0 0 0 0 0 -0 0 0 0 0 0 0 0 0 0 0 -0 0 0 0 0 0 0 -0 -0 -0 -0 -0 0 0 0 0
0 0 0 0 0 0 0 0 0 0 0 0 0 0 0 -0 -0 0 0 0 0 0 0 0 0 0 0 0 0 0 0 0 0 0 -0 -0 0 0 -0 0 0 0 0
0 0 0 0 0 0 0 0 0 0 0 0 0 0 0 0 0 0 0 0 0 0 0 0 0 0 0 0 0 0 0 0 0 0 0 0 0 0 0 0 0 0 0
0 0 0 0 0 0 0 0 0 0 0 0 0 0 0 0 0 0 0 0 0 0 0 0 0 0 0 0 0 0 0 0 0 0 0 0 0 0 0 0 0 0 0
0 0 0 0 0 0 0 0 0 0 0 0 0 0 0 0 0 0 0 0 0 0 0 0 0 0 0 0 0 0 0 0 0 0 0 0 0 0 0 0 -0 0 0
0 0 0 0 0 0 0 0 0 0 0 0 0 0 0 0 0 0 0 0 0 0 0 0 0 0 0 0 0 0 0 0 0 0 0 0 0 0 -0 -0 -0 -0 0
0 0 0 0 0 0 0 0 0 0 0 0 0 0 0 0 0 0 0 0 0 0 0 0 0 0 0 0 0 0 0 0 0 0 0 0 0 0 0 0 0 -0 0
0 0 0 0 0 0 0 0 0 0 0 0 -0 0 0 0 0 0 0 0 0 0 0 0 0 0 0 0 0 0 0 0 0 0 0 0 0 0 0 0 0 0 0
0 0 0 0 0 0 0 0 0 0 0 -0 0 0 0 0 0 0 0 0 0 0 0 0 0 0 0 0 0 0 0 0 0 0 0 0 0 0 0 0 0 0 0
0 0 0 0 0 0 0 0 0 0 -0 -0 0 0 0 0 0 0 0 0 0 0 0 0 0 0 0 0 0 0 0 0 0 0 0 0 0 0 0 0 0 0 0
Wind_Speed_500mb
17 18 19 17 23 27 30 30 35 35 33 28 29 32 32 32 37 40 42 41 44 49 54 55 55 48 47 51 42 35 34 37 49 69 69 72 58 34 22 33 22 15 12
15 14 15 21 26 27 30 38 41 38 32 29 26 30 34 35 34 37 42 43 44 47 52 54 58 55 55 46 44 38 35 38 48 65 71 60 40 14 23 24 5 10 30
16 18 22 23 23 28 37 45 43 34 29 22 24 29 34 38 42 38 36 44 44 43 44 51 58 58 50 50 44 42 39 35 35 46 60 45 26 9 27 17 5 9 29
17 18 20 21 24 31 41 48 43 33 32 28 27 29 35 41 45 42 36 35 45 42 39 50 55 54 52 39 41 42 40 39 39 40 45 37 26 23 24 10 11 15 19
13 15 18 21 25 29 37 46 47 42 36 31 30 34 40 43 38 41 34 29 37 40 45 52 49 45 41 42 31 34 41 44 45 46 46 45 35 30 24 18 6 13 17
11 13 19 22 24 29 34 42 46 50 46 38 37 38 35 33 37 34 30 28 34 35 41 47 48 45 47 37 31 27 32 42 42 45 47 49 43 38 29 13 11 1 4
10 14 19 22 24 28 33 37 45 52 55 44 34 32 35 38 39 36 29 29 30 36 45 47 47 43 47 43 36 31 23 26 31 37 42 46 51 47 29 20 10 12 10
10 14 18 22 26 28 31 37 42 48 54 51 40 36 34 32 38 37 33 28 28 37 41 41 43 41 40 42 43 37 32 28 29 30 31 39 46 42 32 17 12 11 11
10 14 17 22 26 29 29 36 39 42 47 49 47 38 34 33 41 42 41 34 32 33 36 38 40 39 39 37 35 36 37 30 25 21 23 28 34 45 38 18 4 4 9
9 13 17 21 25 28 30 36 37 36 39 44 45 38 33 38 41 41 41 38 35 35 33 37 38 39 39 38 37 34 35 34 31 28 24 24 30 31 35 32 29 4 10
9 13 18 23 24 26 32 35 35 33 32 40 42 35 35 39 41 41 41 42 43 39 34 35 36 44 44 41 39 36 32 31 32 30 25 22 23 23 21 24 24 27 19
8 14 18 22 25 28 33 32 31 34 32 35 36 31 36 43 41 42 45 47 43 38 36 37 38 48 49 47 38 36 33 29 27 25 23 20 18 17 18 18 12 18 19
9 16 18 21 25 29 33 34 33 33 31 27 29 34 39 49 50 47 49 57 47 45 39 45 46 47 46 37 40 35 29 27 24 22 20 18 17 17 18 14 9 5 6
14 19 21 25 24 28 32 36 35 35 32 28 30 37 41 44 42 44 46 51 50 48 53 48 41 38 36 34 31 31 25 26 24 22 20 16 14 13 15 14 8 3 2
18 25 21 25 28 31 30 33 36 33 29 30 33 40 41 45 50 52 53 58 60 59 53 43 40 39 38 32 32 29 28 29 25 19 16 14 10 7 9 9 6 5 2
23 21 26 28 31 33 33 32 33 35 30 29 35 45 46 46 49 49 56 61 54 40 43 35 36 40 37 42 28 29 27 31 25 20 14 12 10 5 9 9 7 2 2
20 25 29 33 34 33 34 28 27 27 27 29 38 43 45 42 45 54 52 50 40 45 32 45 29 39 43 35 32 30 28 28 24 22 12 12 10 7 8 10 9 6 2
23 27 27 31 32 32 29 26 22 21 27 33 38 48 45 48 50 44 50 44 48 41 43 41 34 40 33 34 28 32 25 27 23 22 14 9 11 10 6 9 9 10 6
26 27 27 29 28 31 25 19 18 24 29 30 35 44 48 56 47 46 47 47 47 47 45 43 40 36 36 34 30 28 24 24 23 20 14 11 10 8 4 7 6 7 6
26 28 26 27 24 23 21 21 24 27 28 32 36 47 52 50 45 46 46 46 46 45 47 47 44 39 37 34 30 27 25 22 19 14 11 10 10 6 9 9 7 7 3
26 25 24 20 20 21 22 24 24 26 29 31 34 43 48 42 40 43 45 45 44 44 45 47 45 42 41 37 32 28 25 21 16 14 13 11 9 9 9 7 8 9 7
24 20 19 18 19 23 23 22 25 27 28 32 41 38 45 39 38 41 43 45 43 43 44 45 43 41 39 38 36 33 29 24 20 16 13 13 12 10 9 10 10 7 6
20 17 16 16 20 25 22 24 25 28 30 42 40 42 43 37 37 40 42 42 43 45 45 42 40 38 36 35 34 33 29 24 22 20 18 18 16 16 15 16 14 9 6
18 16 13 16 21 20 23 24 25 29 38 43 43 42 37 33 35 37 40 44 47 46 44 42 38 38 35 33 29 27 27 26 24 24 24 24 22 19 19 17 11 12 12
17 14 16 18 19 20 22 23 26 29 40 43 45 39 33 31 33 36 40 43 49 50 46 41 38 39 36 31 27 26 28 29 28 28 28 26 23 19 19 21 19 14 11
17 19 19 18 18 19 21 22 25 31 40 43 44 38 34 33 33 35 38 45 51 51 49 44 42 38 37 31 27 29 32 32 29 30 28 27 25 23 20 18 15 15 14
Wind_Direction_500mb
355 2 358 343 347 347 342 335 324 322 321 317 327 332 340 349 347 352 355 358 359 1 5 7 4 357 353 356 347 331 325 316 296 315 320 328 335 339 341 326 304 273 241
2 356 353 358 359 358 349 340 334 324 314 317 325 327 330 334 335 345 349 350 355 357 1 359 0 2 6 357 352 353 334 323 316 318 332 341 342 349 344 328 356 113 113
3 1 357 1 4 2 357 353 346 344 347 332 325 322 325 329 331 329 341 344 348 351 356 353 352 354 358 4 4 2 353 351 344 346 347 356 352 24 340 347 338 61 84
351 355 354 355 358 1 2 358 356 352 352 343 333 325 326 326 328 325 326 337 339 345 350 352 353 348 349 349 360 4 7 7 6 3 8 11 17 351 346 345 15 85 80
342 352 345 346 348 354 1 5 8 7 360 352 336 326 325 330 337 330 328 332 336 338 342 348 346 348 348 357 350 359 7 8 8 10 14 18 14 1 353 336 338 83 88
342 344 343 341 344 350 355 3 5 9 2 346 332 332 341 350 346 346 342 344 339 335 340 341 345 347 352 354 4 6 7 2 6 12 14 14 18 7 357 335 299 212 136
5 357 340 342 346 346 352 352 360 5 7 5 0 358 355 354 349 346 333 334 343 341 338 338 339 343 344 348 355 358 357 1 0 6 9 10 5 9 356 349 313 282 245
7 359 350 356 349 345 346 349 355 1 6 7 4 359 358 358 355 356 350 342 344 341 342 339 341 342 342 341 342 347 350 349 351 350 358 3 2 355 2 351 335 267 243
7 359 351 345 345 347 345 348 349 353 1 6 4 355 355 355 355 356 0 4 349 343 341 339 337 340 341 342 340 337 331 338 341 342 347 354 357 354 359 11 22 162 188
1 2 348 342 344 347 345 343 339 341 351 359 0 4 2 5 358 357 359 357 350 343 342 336 338 337 336 335 334 333 334 335 333 325 333 340 341 353 352 14 32 43 197
6 357 350 347 346 345 348 338 333 330 335 347 354 359 358 360 359 355 353 350 344 341 339 338 336 339 338 335 329 326 326 323 321 325 331 332 331 336 4 8 12 34 60
359 353 346 352 349 354 355 347 339 335 330 336 345 349 353 357 353 349 350 349 343 341 334 332 332 338 341 337 328 321 316 316 315 315 321 326 334 343 353 359 23 21 34
357 352 353 348 349 347 347 347 348 344 336 327 333 339 340 349 349 345 342 350 347 341 335 328 326 329 337 341 335 334 328 324 323 329 328 333 337 342 346 340 346 2 38
350 345 343 355 357 353 349 340 334 334 333 327 329 334 334 337 339 339 338 337 335 331 327 326 328 334 330 334 343 340 343 336 331 323 323 325 336 345 345 355 355 325 283
346 347 349 357 358 356 343 348 349 342 332 327 330 333 334 333 335 335 335 331 325 323 323 331 337 338 338 335 337 342 343 340 335 330 319 318 331 349 360 356 1 350 205
354 0 359 356 354 348 344 342 346 348 338 338 338 336 336 333 336 333 327 325 332 337 342 343 338 336 339 338 336 342 345 345 345 344 345 339 337 8 22 13 16 17 171
6 357 353 357 352 346 343 340 345 349 350 345 339 338 339 342 339 331 335 340 344 341 347 343 355 342 345 347 343 344 343 346 350 352 358 4 352 349 19 6 10 345 221
358 353 355 353 350 345 342 342 352 0 352 346 347 352 4 351 348 356 354 6 4 8 4 6 351 354 355 346 343 340 342 349 355 355 348 351 360 4 15 8 17 32 57
2 1 358 352 348 345 344 354 5 359 355 352 351 357 353 355 3 9 14 17 13 12 8 4 1 359 357 355 352 351 350 347 348 351 355 354 1 7 15 360 1 0 14
353 358 356 352 351 353 358 4 358 359 358 353 353 353 350 358 6 10 13 16 15 14 14 12 10 7 5 2 357 352 352 350 352 359 2 3 3 3 357 2 9 10 1
352 354 356 3 353 0 360 1 2 4 0 356 352 351 354 2 4 6 9 12 10 9 12 12 8 11 16 15 11 5 360 359 1 5 8 11 5 1 355 6 9 353 345
357 1 6 6 1 8 14 14 10 8 3 355 355 352 357 5 5 7 10 11 10 10 9 11 11 10 10 10 13 16 16 17 17 18 10 357 353 2 2 352 340 331 324
8 14 15 8 8 13 9 10 8 8 2 359 358 354 359 4 6 6 9 12 10 8 6 6 6 10 10 9 10 10 8 7 5 3 6 355 345 336 332 328 326 307 304
13 17 19 10 4 6 5 7 8 4 360 1 360 358 2 5 6 8 10 11 9 7 5 4 6 3 4 2 3 4 3 359 351 343 336 335 335 332 324 317 306 286 269
18 16 16 5 0 360 5 8 9 7 2 4 3 5 8 7 8 8 9 12 7 6 5 3 2 2 3 356 352 354 349 347 345 341 336 335 334 325 318 308 294 293 256
17 17 15 11 7 8 10 13 13 10 9 8 8 8 6 7 7 5 5 8 6 6 8 6 6 4 4 358 354 354 353 356 2 356 350 343 339 328 317 306 287 267 242
Wind_Speed_850mb
17 18 19 17 23 27 30 30 35 35 33 28 29 32 32 32 37 40 42 41 44 49 54 55 55 48 47 51 42 35 34 37 49 69 69 72 58 34 22 33 22 15 12
15 14 15 21 26 27 30 38 41 38 32 29 26 30 34 35 34 37 42 43 44 47 52 54 58 55 55 46 44 38 35 38 48 65 71 60 40 14 23 24 5 10 30
16 18 22 23 23 28 37 45 43 34 29 22 24 29 34 38 42 38 36 44 44 43 44 51 58 58 50 50 44 42 39 35 35 46 60 45 26 9 27 17 5 9 29
17 18 20 21 24 31 41 48 43 33 32 28 27 29 35 41 45 42 36 35 45 42 39 50 55 54 52 39 41 42 40 39 39 40 45 37 26 23 24 10 11 15 19
13 15 18 21 25 29 37 46 47 42 36 31 30 34 40 43 38 41 34 29 37 40 45 52 49 45 41 42 31 34 41 44 45 46 46 45 35 30 24 18 6 13 17
11 13 19 22 24 29 34 42 46 50 46 38 37 38 35 33 37 34 30 28 34 35 41 47 48 45 47 37 31 27 32 42 42 45 47 49 43 38 29 13 11 1 4
10 14 19 22 24 28 33 37 45 52 55 44 34 32 35 38 39 36 29 29 30 36 45 47 47 43 47 43 36 31 23 26 31 37 42 46 51 47 29 20 10 12 10
10 14 18 22 26 28 31 37 42 48 54 51 40 36 34 32 38 37 33 28 28 37 41 41 43 41 40 42 43 37 32 28 29 30 31 39 46 42 32 17 12 11 11
10 14 17 22 26 29 29 36 39 42 47 49 47 38 34 33 41 42 41 34 32 33 36 38 40 39 39 37 35 36 37 30 25 21 23 28 34 45 38 18 4 4 9
9 13 17 21 25 28 30 36 37 36 39 44 45 38 33 38 41 41 41 38 35 35 33 37 38 39 39 38 37 34 35 34 31 28 24 24 30 31 35 32 29 4 10
9 13 18 23 24 26 32 35 35 33 32 40 42 35 35 39 41 41 41 42 43 39 34 35 36 44 44 41 39 36 32 31 32 30 25 22 23 23 21 24 24 27 19
8 14 18 22 25 28 33 32 31 34 32 35 36 31 36 43 41 42 45 47 43 38 36 37 38 48 49 47 38 36 33 29 27 25 23 20 18 17 18 18 12 18 19
9 16 18 21 25 29 33 34 33 33 31 27 29 34 39 49 50 47 49 57 47 45 39 45 46 47 46 37 40 35 29 27 24 22 20 18 17 17 18 14 9 5 6
14 19 21 25 24 28 32 36 35 35 32 28 30 37 41 44 42 44 46 51 50 48 53 48 41 38 36 34 31 31 25 26 24 22 20 16 14 13 15 14 8 3 2
18 25 21 25 28 31 30 33 36 33 29 30 33 40 41 45 50 52 53 58 60 59 53 43 40 39 38 32 32 29 28 29 25 19 16 14 10 7 9 9 6 5 2
23 21 26 28 31 33 33 32 33 35 30 29 35 45 46 46 49 49 56 61 54 40 43 35 36 40 37 42 28 29 27 31 25 20 14 12 10 5 9 9 7 2 2
20 25 29 33 34 33 34 28 27 27 27 29 38 43 45 42 45 54 52 50 40 45 32 45 29 39 43 35 32 30 28 28 24 22 12 12 10 7 8 10 9 6 2
23 27 27 31 32 32 29 26 22 21 27 33 38 48 45 48 50 44 50 44 48 41 43 41 34 40 33 34 28 32 25 27 23 22 14 9 11 10 6 9 9 10 6
26 27 27 29 28 31 25 19 18 24 29 30 35 44 48 56 47 46 47 47 47 47 45 43 40 36 36 34 30 28 24 24 23 20 14 11 10 8 4 7 6 7 6
26 28 26 27 24 23 21 21 24 27 28 32 36 47 52 50 45 46 46 46 46 45 47 47 44 39 37 34 30 27 25 22 19 14 11 10 10 6 9 9 7 7 3
26 25 24 20 20 21 22 24 24 26 29 31 34 43 48 42 40 43 45 45 44 44 45 47 45 42 41 37 32 28 25 21 16 14 13 11 9 9 9 7 8 9 7
24 20 19 18 19 23 23 22 25 27 28 32 41 38 45 39 38 41 43 45 43 43 44 45 43 41 39 38 36 33 29 24 20 16 13 13 12 10 9 10 10 7 6
20 17 16 16 20 25 22 24 25 28 30 42 40 42 43 37 37 40 42 42 43 45 45 42 40 38 36 35 34 33 29 24 22 20 18 18 16 16 15 16 14 9 6
18 16 13 16 21 20 23 24 25 29 38 43 43 42 37 33 35 37 40 44 47 46 44 42 38 38 35 33 29 27 27 26 24 24 24 24 22 19 19 17 11 12 12
17 14 16 18 19 20 22 23 26 29 40 43 45 39 33 31 33 36 40 43 49 50 46 41 38 39 36 31 27 26 28 29 28 28 28 26 23 19 19 21 19 14 11
17 19 19 18 18 19 21 22 25 31 40 43 44 38 34 33 33 35 38 45 51 51 49 44 42 38 37 31 27 29 32 32 29 30 28 27 25 23 20 18 15 15 14
Wind_Direction_850mb
355 2 358 343 347 347 342 335 324 322 321 317 327 332 340 349 347 352 355 358 359 1 5 7 4 357 353 356 347 331 325 316 296 315 320 328 335 339 341 326 304 273 241
2 356 353 358 359 358 349 340 334 324 314 317 325 327 330 334 335 345 349 350 355 357 1 359 0 2 6 357 352 353 334 323 316 318 332 341 342 349 344 328 356 113 113
3 1 357 1 4 2 357 353 346 344 347 332 325 322 325 329 331 329 341 344 348 351 356 353 352 354 358 4 4 2 353 351 344 346 347 356 352 24 340 347 338 61 84
351 355 354 355 358 1 2 358 356 352 352 343 333 325 326 326 328 325 326 337 339 345 350 352 353 348 349 349 360 4 7 7 6 3 8 11 17 351 346 345 15 85 80
342 352 345 346 348 354 1 5 8 7 360 352 336 326 325 330 337 330 328 332 336 338 342 348 346 348 348 357 350 359 7 8 8 10 14 18 14 1 353 336 338 83 88
342 344 343 341 344 350 355 3 5 9 2 346 332 332 341 350 346 346 342 344 339 335 340 341 345 347 352 354 4 6 7 2 6 12 14 14 18 7 357 335 299 212 136
5 357 340 342 346 346 352 352 360 5 7 5 0 358 355 354 349 346 333 334 343 341 338 338 339 343 344 348 355 358 357 1 0 6 9 10 5 9 356 349 313 282 245
7 359 350 356 349 345 346 349 355 1 6 7 4 359 358 358 355 356 350 342 344 341 342 339 341 342 342 341 342 347 350 349 351 350 358 3 2 355 2 351 335 267 243
7 359 351 345 345 347 345 348 349 353 1 6 4 355 355 355 355 356 0 4 349 343 341 339 337 340 341 342 340 337 331 338 341 342 347 354 357 354 359 11 22 162 188
1 2 348 342 344 347 345 343 339 341 351 359 0 4 2 5 358 357 359 357 350 343 342 336 338 337 336 335 334 333 334 335 333 325 333 340 341 353 352 14 32 43 197
6 357 350 347 346 345 348 338 333 330 335 347 354 359 358 360 359 355 353 350 344 341 339 338 336 339 338 335 329 326 326 323 321 325 331 332 331 336 4 8 12 34 60
359 353 346 352 349 354 355 347 339 335 330 336 345 349 353 357 353 349 350 349 343 341 334 332 332 338 341 337 328 321 316 316 315 315 321 326 334 343 353 359 23 21 34
357 352 353 348 349 347 347 347 348 344 336 327 333 339 340 349 349 345 342 350 347 341 335 328 326 329 337 341 335 334 328 324 323 329 328 333 337 342 346 340 346 2 38
350 345 343 355 357 353 349 340 334 334 333 327 329 334 334 337 339 339 338 337 335 331 327 326 328 334 330 334 343 340 343 336 331 323 323 325 336 345 345 355 355 325 283
346 347 349 357 358 356 343 348 349 342 332 327 330 333 334 333 335 335 335 331 325 323 323 331 337 338 338 335 337 342 343 340 335 330 319 318 331 349 360 356 1 350 205
354 0 359 356 354 348 344 342 346 348 338 338 338 336 336 333 336 333 327 325 332 337 342 343 338 336 339 338 336 342 345 345 345 344 345 339 337 8 22 13 16 17 171
6 357 353 357 352 346 343 340 345 349 350 345 339 338 339 342 339 331 335 340 344 341 347 343 355 342 345 347 343 344 343 346 350 352 358 4 352 349 19 6 10 345 221
358 353 355 353 350 345 342 342 352 0 352 346 347 352 4 351 348 356 354 6 4 8 4 6 351 354 355 346 343 340 342 349 355 355 348 351 360 4 15 8 17 32 57
2 1 358 352 348 345 344 354 5 359 355 352 351 357 353 355 3 9 14 17 13 12 8 4 1 359 357 355 352 351 350 347 348 351 355 354 1 7 15 360 1 0 14
353 358 356 352 351 353 358 4 358 359 358 353 353 353 350 358 6 10 13 16 15 14 14 12 10 7 5 2 357 352 352 350 352 359 2 3 3 3 357 2 9 10 1
352 354 356 3 353 0 360 1 2 4 0 356 352 351 354 2 4 6 9 12 10 9 12 12 8 11 16 15 11 5 360 359 1 5 8 11 5 1 355 6 9 353 345
357 1 6 6 1 8 14 14 10 8 3 355 355 352 357 5 5 7 10 11 10 10 9 11 11 10 10 10 13 16 16 17 17 18 10 357 353 2 2 352 340 331 324
8 14 15 8 8 13 9 10 8 8 2 359 358 354 359 4 6 6 9 12 10 8 6 6 6 10 10 9 10 10 8 7 5 3 6 355 345 336 332 328 326 307 304
13 17 19 10 4 6 5 7 8 4 360 1 360 358 2 5 6 8 10 11 9 7 5 4 6 3 4 2 3 4 3 359 351 343 336 335 335 332 324 317 306 286 269
18 16 16 5 0 360 5 8 9 7 2 4 3 5 8 7 8 8 9 12 7 6 5 3 2 2 3 356 352 354 349 347 345 341 336 335 334 325 318 308 294 293 256
17 17 15 11 7 8 10 13 13 10 9 8 8 8 6 7 7 5 5 8 6 6 8 6 6 4 4 358 354 354 353 356 2 356 350 343 339 328 317 306 287 267 242